DECAYED
Showing default

UVSQ-SAT, 47438 (Decayed)

Orbit data source: Space-Track

UVSQ-SAT, 47438 was a French payload satellite in LEO that was launched on Sun, 24 Jan 2021 UTC via an FALCON 9 launch vehicle from the Air Force Eastern Test Range (AFETR). Payload-class satellites include a variety of spacecraft equipped with specific instruments for various scientific and technological missions. These include communications satellites like Starlink; space stations such as the ISS; scientific satellites like the Hubble; Earth observation satellites from companies like Planet Labs, Umbra, and HawkEye 360; GPS; miniature CubeSats for education and research; and military/defense satellites.

Not visible in the next 10 days
Identifier
47438, 2021-006AB
Orbit
Decayed
Country
Flag of FRFR
Related business
Flag of FRUniversity of Versailles Saint-Quentin-en-Yvelines (FR)
Manufacturer
LATMOS/ISISBV
Mission
Decayed Amateur Science
Bus & Motor
CUBESAT 1U, Unknown motor
Mass
1.6 kg wet, 1.6 kg dry
Launch date (UTC)
2021-01-24 (5 years ago)
Launch vehicle
FALCON 9
Launch site
Air Force Eastern Test Range (AFETR)
Object type
Payload
Rocket body
Debris
Shape & HBR
Box, Unknown HBR
Radar Cross Section
0.015 m², Small (<0.1 m²)

Expand to show TLE details & history
Last TLE update: 11 months ago

TLE from 11 months ago
0 UVSQ-SAT
1 47438U 21006AB  24298.11681880  .03670113  23594-5  18855-2 0  9991
2 47438  97.2775   3.3666 0006581 273.2868  86.7668 16.20433421208899
Epoch: 2024-10-24T02:48Z
TLE epoch observation values (Epoch: 2024-10-24T02:48:13.144Z)
Latitude
-0.00006°
Longitude
-71.6932°
Altitude
221.362 km
Speed
7.774 km/s
True Right ascension
00h 13m 27s
True Declination
0° 00' 00"
Sunlit
Object was in full shadow at epoch
Visualization orbit readout
Latitude
Unknown
Longitude
Unknown
Altitude
Unknown
Speed
Unknown
Apparent Right ascension
Unknown
Apparent Declination
Unknown
Sunlit
N/A
Visualization observer readout
Local Sidereal Time
19:41:09
Azimuth
Unknown
Elevation
Unknown
Doppler factor
Unknown
Orbital elements
Apogee altitude
219.542 km
Perigee altitude
210.864 km
Semi-major axis
6,593.34 km
Eccentricity
0.00066
Inclination
97.2775°
RAAN
3.3666°
Arg. of periapsis
273.2868°
True anomaly
86.8421°
Mean anomaly
86.7668°
Eccentric anomaly
86.80445°
Mean motion
4.05401 °/min
Orbital period
88.8 mins
BSTAR
0.0018855
Loading maneuver chart data...
Computing Atmospheric mass density...

Documentation

Showing up to 5 results
|